Regional Weather Roundup
Issued by NWS Sterling, VA

Home | Current Version | Previous Version | Graphics & Text | Print | Product List | Glossary On
Versions: 1 2 3 4 5 6 7 8 9 10 11 12 13 14 15 16 17 18 19 20 21 22 23 24 25 26 27 28 29 30 31 32 33 34 35 36 37 38 39 40 41 42 43 44 45 46 47 48 49 50
000
ASUS41 KLWX 210010
RWRLWX

REGIONAL WEATHER ROUNDUP
NATIONAL WEATHER SERVICE BALTIMORE MD/WASHINGTON DC
800 PM EDT WED AUG 20 2014

Note: "FAIR" indicates few or no clouds below 12,000 feet
with no significant weather and/or obstructions to visibility.
 TC=TEMPERATURE CELSIUS

 * =Non NWS site. Station does not report precipitation (e.g. rain,
    snow, etc.), thunder, or fog.

DCZ001-MDZ009-015-VAZ040>042-051-053>054-210100-
WASHINGTON METRO
  /KDAA//-FT BELVOIR

CITY           SKY/WX    TMP DP  RH WIND       PRES   REMARKS
WASHINGTON NAT CLOUDY    75  63  66 S5        29.96F
DULLES         CLOUDY    69  65  86 CALM      29.97S
ANDREWS AFB    CLOUDY    71  68  91 S2        29.96S
QUANTICO       CLOUDY    74  67  78 S8        29.97F
COLLEGE PARK*  CLOUDY    72  72 100 CALM      29.97S
LEESBURG*      CLOUDY    72  68  88 CALM      29.99R
MANASSAS*      CLOUDY    72  70  94 S3        29.97S
GAITHERSBURG*  MOCLDY    70  66  88 CALM      30.02R

$$

MDZ006>007-011-014-210100-
BALTIMORE METRO

CITY           SKY/WX    TMP DP  RH WIND       PRES   REMARKS
BWI AIRPORT    CLOUDY    73  67  81 CALM      29.97R
MD SCIENCE CTR   N/A     78  64  61 MISG      29.98R
MARTIN STATE   MOCLDY    79  70  73 SE6       29.99R
ANNAPOLIS      CLOUDY    76  66  71 MISG      29.97R
FORT MEADE*    CLOUDY    70  68  94 CALM      30.00S

$$

MDZ012-015-019>023-210100-
MARYLAND EASTERN SHORE

CITY           SKY/WX    TMP DP  RH WIND       PRES   REMARKS
OCEAN CITY     CLEAR     72  64  76 SE3       30.01S
SALISBURY      CLEAR     73  63  70 SE6       30.01S
BAY BRIDGE AP* LGT RAIN  75  68  78 SE8       29.97R
CAMBRIDGE*     CLOUDY    77  63  61 SE7       29.97F
EASTON*        CLOUDY    81  68  65 W3        30.02S

$$

MDZ017>025-210100-
SOUTHERN MARYLAND

CITY           SKY/WX    TMP DP  RH WIND       PRES   REMARKS
PATUXENT RIVER MOCLDY    76  59  55 SE13      29.95F
ST INIGOES     PTCLDY    71  63  75 CALM      29.99R
LEONARDTOWN*   PTCLDY    77  59  53 SE8G16    29.97F

$$

MDZ003>005-210100-
NORTH CENTRAL MARYLAND

CITY           SKY/WX    TMP DP  RH WIND       PRES   REMARKS
FREDERICK*     PTCLDY    73  72  94 CALM      30.01R
HAGERSTOWN APT MOCLDY    74  65  73 SE7       29.98R
WESTMINSTER*   MOCLDY    73  66  78 S6        30.00R

$$

MDZ501>502-210100-
WESTERN MARYLAND

CITY           SKY/WX    TMP DP  RH WIND       PRES   REMARKS
OAKLAND*       CLEAR     68  68 100 SW5       30.07S
CUMBERLAND*    PTCLDY    81  63  54 CALM      29.99R

$$

VAZ025>031-210100-
SHENANDOAH VALLEY

CITY           SKY/WX    TMP DP  RH WIND       PRES   REMARKS
WINCHESTER*    PTCLDY    72  68  88 E7        29.97S
STAUNTON*      CLOUDY    76  65  69 E12       30.00R

$$

WVZ021-048>050-054>055-210100-
EASTERN WEST VIRGINIA PANHANDLE

CITY           SKY/WX    TMP DP  RH WIND       PRES   REMARKS
MARTINSBURG    PTCLDY    74  67  78 E3        29.98R
PETERSBURG*    NOT AVBL

$$

VAZ036>039-050-210100-
CENTRAL FOOTHILLS

CITY           SKY/WX    TMP DP  RH WIND       PRES   REMARKS
CHARLOTTESVILL RAIN      69  66  90 NE10      29.99F FOG
ORANGE*        CLOUDY    70  68  94 CALM      30.00R

$$

VAZ055>057-210100-
NORTH AND CENTRAL PIEDMONT

CITY           SKY/WX    TMP DP  RH WIND       PRES   REMARKS
FREDERICKSBRG* DRIZZLE   71  71  97 SE8       29.96F
STAFFORD*      MOCLDY    70  70 100 CALM      30.01F

$$

NCZ024-NYZ072-PAZ021-071-VAZ022-071-210100-
OTHER REGIONAL OBSERVATIONS

CITY           SKY/WX    TMP DP  RH WIND       PRES   REMARKS
NEW YORK CITY  PTCLDY    74  56  53 VRB3      30.04R
PHILADELPHIA   MOCLDY    78  65  63 S9        30.00R
PITTSBURGH     TSTM      71  67  87 S8G22     29.95S
ROANOKE        PTCLDY    81  70  69 CALM      30.01R
RICHMOND       MOCLDY    81  67  62 E8        29.97R
RALEIGH        PTCLDY    77  70  79 SE3       29.97S

$$

ANZ530>537-210100-
MARINE OBSERVATIONS

STATION/POSITION TIME  TEMP    WIND        PRES
                       AIR SEA DIR/SP/G
                 (UTC) (F)     (DEG/KT/KT) (MB)
THOMAS PT LIGHT  0000   78 78  170/ 16/ 19 1015.1R
BALT KEY BRIDGE  0000   78     190/  6/  7 1014.6R
COVE POINT       0000   78     190/ 17/ 18 1013.9F
LEWISETTA        0000   78 81  160/  4/  4 1015.6R
SOLOMONS ISLAND  0000      81                N/A
PINEY POINT      0000          140/ 11/ 12   N/A

$$



USA.gov is the U.S. government's official web portal to all federal, state and local government web resources and services.